band,1993,1994,1995,1996,1997,1998,1999,2000,2001
,362,354,283,332,351,353,341,364,353
1,1-Jan-1993,1-Jan-1994,1-Jan-1995,1-Jan-1996,1-Jan-1997,1-Jan-1998,1-Jan-1999,1-Jan-2000,11-Jan-2001
2,2-Jan-1993,2-Jan-1994,2-Jan-1995,2-Jan-1996,2-Jan-1997,2-Jan-1998,2-Jan-1999,2-Jan-2000,12-Jan-2001
3,3-Jan-1993,3-Jan-1994,3-Jan-1995,3-Jan-1996,4-Jan-1997,3-Jan-1998,3-Jan-1999,3-Jan-2000,13-Jan-2001
4,4-Jan-1993,4-Jan-1994,4-Jan-1995,4-Jan-1996,5-Jan-1997,4-Jan-1998,4-Jan-1999,4-Jan-2000,14-Jan-2001
5,5-Jan-1993,5-Jan-1994,5-Jan-1995,5-Jan-1996,6-Jan-1997,5-Jan-1998,5-Jan-1999,5-Jan-2000,15-Jan-2001
6,6-Jan-1993,6-Jan-1994,6-Jan-1995,6-Jan-1996,7-Jan-1997,6-Jan-1998,6-Jan-1999,6-Jan-2000,16-Jan-2001
7,7-Jan-1993,7-Jan-1994,7-Jan-1995,7-Jan-1996,9-Jan-1997,7-Jan-1998,7-Jan-1999,7-Jan-2000,17-Jan-2001
8,8-Jan-1993,8-Jan-1994,8-Jan-1995,8-Jan-1996,10-Jan-1997,8-Jan-1998,8-Jan-1999,8-Jan-2000,18-Jan-2001
9,9-Jan-1993,9-Jan-1994,9-Jan-1995,9-Jan-1996,11-Jan-1997,9-Jan-1998,9-Jan-1999,9-Jan-2000,19-Jan-2001
10,10-Jan-1993,10-Jan-1994,10-Jan-1995,10-Jan-1996,12-Jan-1997,10-Jan-1998,10-Jan-1999,10-Jan-2000,20-Jan-2001
11,11-Jan-1993,11-Jan-1994,11-Jan-1995,11-Jan-1996,13-Jan-1997,11-Jan-1998,11-Jan-1999,11-Jan-2000,21-Jan-2001
12,12-Jan-1993,12-Jan-1994,12-Jan-1995,12-Jan-1996,14-Jan-1997,12-Jan-1998,12-Jan-1999,12-Jan-2000,22-Jan-2001
13,13-Jan-1993,13-Jan-1994,13-Jan-1995,13-Jan-1996,15-Jan-1997,13-Jan-1998,13-Jan-1999,13-Jan-2000,23-Jan-2001
14,14-Jan-1993,14-Jan-1994,14-Jan-1995,14-Jan-1996,16-Jan-1997,14-Jan-1998,14-Jan-1999,14-Jan-2000,24-Jan-2001
15,15-Jan-1993,15-Jan-1994,15-Jan-1995,15-Jan-1996,17-Jan-1997,15-Jan-1998,15-Jan-1999,15-Jan-2000,25-Jan-2001
16,16-Jan-1993,16-Jan-1994,16-Jan-1995,16-Jan-1996,21-Jan-1997,16-Jan-1998,16-Jan-1999,16-Jan-2000,26-Jan-2001
17,17-Jan-1993,17-Jan-1994,17-Jan-1995,17-Jan-1996,22-Jan-1997,17-Jan-1998,17-Jan-1999,17-Jan-2000,27-Jan-2001
18,18-Jan-1993,18-Jan-1994,18-Jan-1995,18-Jan-1996,23-Jan-1997,18-Jan-1998,18-Jan-1999,20-Jan-2000,28-Jan-2001
19,19-Jan-1993,19-Jan-1994,19-Jan-1995,19-Jan-1996,24-Jan-1997,19-Jan-1998,21-Jan-1999,21-Jan-2000,29-Jan-2001
20,20-Jan-1993,20-Jan-1994,20-Jan-1995,20-Jan-1996,25-Jan-1997,20-Jan-1998,22-Jan-1999,22-Jan-2000,30-Jan-2001
21,21-Jan-1993,21-Jan-1994,21-Jan-1995,22-Jan-1996,26-Jan-1997,21-Jan-1998,23-Jan-1999,23-Jan-2000,31-Jan-2001
22,22-Jan-1993,22-Jan-1994,22-Jan-1995,23-Jan-1996,27-Jan-1997,22-Jan-1998,24-Jan-1999,24-Jan-2000,1-Feb-2001
23,23-Jan-1993,23-Jan-1994,23-Jan-1995,24-Jan-1996,28-Jan-1997,23-Jan-1998,1-Feb-1999,25-Jan-2000,2-Feb-2001
24,24-Jan-1993,24-Jan-1994,24-Jan-1995,25-Jan-1996,29-Jan-1997,24-Jan-1998,2-Feb-1999,26-Jan-2000,3-Feb-2001
25,25-Jan-1993,25-Jan-1994,25-Jan-1995,26-Jan-1996,30-Jan-1997,25-Jan-1998,3-Feb-1999,27-Jan-2000,4-Feb-2001
26,26-Jan-1993,26-Jan-1994,26-Jan-1995,27-Jan-1996,31-Jan-1997,26-Jan-1998,4-Feb-1999,28-Jan-2000,5-Feb-2001
27,27-Jan-1993,27-Jan-1994,27-Jan-1995,28-Jan-1996,1-Feb-1997,27-Jan-1998,5-Feb-1999,29-Jan-2000,6-Feb-2001
28,28-Jan-1993,28-Jan-1994,28-Jan-1995,29-Jan-1996,2-Feb-1997,28-Jan-1998,6-Feb-1999,30-Jan-2000,7-Feb-2001
29,29-Jan-1993,29-Jan-1994,29-Jan-1995,30-Jan-1996,3-Feb-1997,29-Jan-1998,7-Feb-1999,31-Jan-2000,8-Feb-2001
30,30-Jan-1993,30-Jan-1994,30-Jan-1995,31-Jan-1996,4-Feb-1997,30-Jan-1998,8-Feb-1999,1-Feb-2000,9-Feb-2001
31,31-Jan-1993,31-Jan-1994,31-Jan-1995,1-Feb-1996,5-Feb-1997,31-Jan-1998,9-Feb-1999,2-Feb-2000,10-Feb-2001
32,1-Feb-1993,1-Feb-1994,1-Feb-1995,2-Feb-1996,6-Feb-1997,1-Feb-1998,10-Feb-1999,3-Feb-2000,11-Feb-2001
33,2-Feb-1993,2-Feb-1994,2-Feb-1995,4-Feb-1996,7-Feb-1997,2-Feb-1998,11-Feb-1999,4-Feb-2000,12-Feb-2001
34,3-Feb-1993,3-Feb-1994,3-Feb-1995,5-Feb-1996,8-Feb-1997,3-Feb-1998,12-Feb-1999,5-Feb-2000,13-Feb-2001
35,4-Feb-1993,4-Feb-1994,4-Feb-1995,6-Feb-1996,9-Feb-1997,4-Feb-1998,13-Feb-1999,6-Feb-2000,14-Feb-2001
36,5-Feb-1993,5-Feb-1994,5-Feb-1995,7-Feb-1996,10-Feb-1997,5-Feb-1998,14-Feb-1999,7-Feb-2000,15-Feb-2001
37,6-Feb-1993,6-Feb-1994,6-Feb-1995,8-Feb-1996,11-Feb-1997,6-Feb-1998,15-Feb-1999,8-Feb-2000,16-Feb-2001
38,7-Feb-1993,7-Feb-1994,7-Feb-1995,9-Feb-1996,12-Feb-1997,7-Feb-1998,16-Feb-1999,9-Feb-2000,19-Feb-2001
39,8-Feb-1993,8-Feb-1994,8-Feb-1995,10-Feb-1996,13-Feb-1997,8-Feb-1998,17-Feb-1999,10-Feb-2000,20-Feb-2001
40,9-Feb-1993,9-Feb-1994,9-Feb-1995,11-Feb-1996,14-Feb-1997,9-Feb-1998,18-Feb-1999,11-Feb-2000,21-Feb-2001
41,10-Feb-1993,10-Feb-1994,10-Feb-1995,12-Feb-1996,16-Feb-1997,10-Feb-1998,19-Feb-1999,12-Feb-2000,22-Feb-2001
42,11-Feb-1993,11-Feb-1994,11-Feb-1995,13-Feb-1996,17-Feb-1997,11-Feb-1998,20-Feb-1999,13-Feb-2000,23-Feb-2001
43,12-Feb-1993,12-Feb-1994,12-Feb-1995,14-Feb-1996,18-Feb-1997,12-Feb-1998,21-Feb-1999,14-Feb-2000,24-Feb-2001
44,13-Feb-1993,13-Feb-1994,13-Feb-1995,15-Feb-1996,19-Feb-1997,13-Feb-1998,22-Feb-1999,15-Feb-2000,25-Feb-2001
45,14-Feb-1993,14-Feb-1994,14-Feb-1995,16-Feb-1996,20-Feb-1997,14-Feb-1998,23-Feb-1999,16-Feb-2000,26-Feb-2001
46,15-Feb-1993,15-Feb-1994,15-Feb-1995,25-Feb-1996,21-Feb-1997,15-Feb-1998,24-Feb-1999,17-Feb-2000,27-Feb-2001
47,16-Feb-1993,16-Feb-1994,16-Feb-1995,26-Feb-1996,22-Feb-1997,16-Feb-1998,25-Feb-1999,18-Feb-2000,28-Feb-2001
48,17-Feb-1993,17-Feb-1994,17-Feb-1995,27-Feb-1996,23-Feb-1997,17-Feb-1998,26-Feb-1999,19-Feb-2000,1-Mar-2001
49,18-Feb-1993,18-Feb-1994,18-Feb-1995,28-Feb-1996,24-Feb-1997,18-Feb-1998,27-Feb-1999,20-Feb-2000,2-Mar-2001
50,19-Feb-1993,19-Feb-1994,19-Feb-1995,1-Mar-1996,25-Feb-1997,19-Feb-1998,28-Feb-1999,21-Feb-2000,3-Mar-2001
51,20-Feb-1993,20-Feb-1994,20-Feb-1995,2-Mar-1996,26-Feb-1997,20-Feb-1998,1-Mar-1999,22-Feb-2000,4-Mar-2001
52,21-Feb-1993,21-Feb-1994,21-Feb-1995,3-Mar-1996,27-Feb-1997,21-Feb-1998,2-Mar-1999,23-Feb-2000,5-Mar-2001
53,22-Feb-1993,22-Feb-1994,22-Feb-1995,4-Mar-1996,28-Feb-1997,22-Feb-1998,3-Mar-1999,24-Feb-2000,6-Mar-2001
54,23-Feb-1993,23-Feb-1994,23-Feb-1995,5-Mar-1996,1-Mar-1997,23-Feb-1998,4-Mar-1999,25-Feb-2000,7-Mar-2001
55,24-Feb-1993,24-Feb-1994,24-Feb-1995,6-Mar-1996,2-Mar-1997,24-Feb-1998,5-Mar-1999,26-Feb-2000,8-Mar-2001
56,25-Feb-1993,25-Feb-1994,25-Feb-1995,7-Mar-1996,3-Mar-1997,25-Feb-1998,6-Mar-1999,27-Feb-2000,9-Mar-2001
57,26-Feb-1993,26-Feb-1994,26-Feb-1995,8-Mar-1996,5-Mar-1997,26-Feb-1998,7-Mar-1999,28-Feb-2000,10-Mar-2001
58,27-Feb-1993,27-Feb-1994,27-Feb-1995,9-Mar-1996,6-Mar-1997,27-Feb-1998,8-Mar-1999,29-Feb-2000,11-Mar-2001
59,28-Feb-1993,28-Feb-1994,28-Feb-1995,10-Mar-1996,7-Mar-1997,28-Feb-1998,9-Mar-1999,1-Mar-2000,12-Mar-2001
60,1-Mar-1993,1-Mar-1994,1-Mar-1995,11-Mar-1996,8-Mar-1997,1-Mar-1998,10-Mar-1999,2-Mar-2000,13-Mar-2001
61,2-Mar-1993,2-Mar-1994,2-Mar-1995,12-Mar-1996,9-Mar-1997,2-Mar-1998,12-Mar-1999,3-Mar-2000,14-Mar-2001
62,4-Mar-1993,3-Mar-1994,3-Mar-1995,13-Mar-1996,10-Mar-1997,3-Mar-1998,13-Mar-1999,4-Mar-2000,15-Mar-2001
63,5-Mar-1993,4-Mar-1994,4-Mar-1995,14-Mar-1996,11-Mar-1997,4-Mar-1998,14-Mar-1999,5-Mar-2000,16-Mar-2001
64,6-Mar-1993,5-Mar-1994,5-Mar-1995,15-Mar-1996,12-Mar-1997,5-Mar-1998,15-Mar-1999,6-Mar-2000,17-Mar-2001
65,7-Mar-1993,6-Mar-1994,6-Mar-1995,16-Mar-1996,13-Mar-1997,6-Mar-1998,16-Mar-1999,7-Mar-2000,18-Mar-2001
66,8-Mar-1993,7-Mar-1994,7-Mar-1995,17-Mar-1996,14-Mar-1997,7-Mar-1998,17-Mar-1999,8-Mar-2000,19-Mar-2001
67,9-Mar-1993,8-Mar-1994,8-Mar-1995,18-Mar-1996,15-Mar-1997,8-Mar-1998,18-Mar-1999,9-Mar-2000,20-Mar-2001
68,10-Mar-1993,9-Mar-1994,9-Mar-1995,19-Mar-1996,16-Mar-1997,9-Mar-1998,19-Mar-1999,10-Mar-2000,21-Mar-2001
69,11-Mar-1993,10-Mar-1994,10-Mar-1995,20-Mar-1996,17-Mar-1997,10-Mar-1998,20-Mar-1999,11-Mar-2000,22-Mar-2001
70,12-Mar-1993,11-Mar-1994,11-Mar-1995,21-Mar-1996,18-Mar-1997,11-Mar-1998,21-Mar-1999,12-Mar-2000,23-Mar-2001
71,13-Mar-1993,12-Mar-1994,12-Mar-1995,22-Mar-1996,19-Mar-1997,12-Mar-1998,22-Mar-1999,13-Mar-2000,24-Mar-2001
72,14-Mar-1993,13-Mar-1994,13-Mar-1995,23-Mar-1996,20-Mar-1997,13-Mar-1998,23-Mar-1999,14-Mar-2000,25-Mar-2001
73,15-Mar-1993,14-Mar-1994,14-Mar-1995,24-Mar-1996,21-Mar-1997,14-Mar-1998,24-Mar-1999,15-Mar-2000,26-Mar-2001
74,16-Mar-1993,15-Mar-1994,15-Mar-1995,25-Mar-1996,22-Mar-1997,15-Mar-1998,25-Mar-1999,16-Mar-2000,27-Mar-2001
75,17-Mar-1993,16-Mar-1994,16-Mar-1995,26-Mar-1996,23-Mar-1997,16-Mar-1998,26-Mar-1999,17-Mar-2000,28-Mar-2001
76,18-Mar-1993,17-Mar-1994,17-Mar-1995,27-Mar-1996,24-Mar-1997,17-Mar-1998,27-Mar-1999,18-Mar-2000,29-Mar-2001
77,19-Mar-1993,18-Mar-1994,18-Mar-1995,28-Mar-1996,25-Mar-1997,18-Mar-1998,28-Mar-1999,19-Mar-2000,30-Mar-2001
78,20-Mar-1993,19-Mar-1994,19-Mar-1995,29-Mar-1996,26-Mar-1997,19-Mar-1998,29-Mar-1999,20-Mar-2000,31-Mar-2001
79,21-Mar-1993,20-Mar-1994,20-Mar-1995,30-Mar-1996,27-Mar-1997,20-Mar-1998,30-Mar-1999,21-Mar-2000,1-Apr-2001
80,22-Mar-1993,21-Mar-1994,21-Mar-1995,31-Mar-1996,28-Mar-1997,21-Mar-1998,31-Mar-1999,22-Mar-2000,2-Apr-2001
81,23-Mar-1993,22-Mar-1994,22-Mar-1995,1-Apr-1996,29-Mar-1997,22-Mar-1998,1-Apr-1999,23-Mar-2000,3-Apr-2001
82,24-Mar-1993,23-Mar-1994,23-Mar-1995,2-Apr-1996,30-Mar-1997,23-Mar-1998,2-Apr-1999,24-Mar-2000,4-Apr-2001
83,25-Mar-1993,24-Mar-1994,24-Mar-1995,3-Apr-1996,31-Mar-1997,24-Mar-1998,3-Apr-1999,25-Mar-2000,5-Apr-2001
84,26-Mar-1993,25-Mar-1994,25-Mar-1995,4-Apr-1996,1-Apr-1997,25-Mar-1998,4-Apr-1999,26-Mar-2000,6-Apr-2001
85,27-Mar-1993,26-Mar-1994,26-Mar-1995,5-Apr-1996,2-Apr-1997,26-Mar-1998,5-Apr-1999,27-Mar-2000,7-Apr-2001
86,28-Mar-1993,27-Mar-1994,27-Mar-1995,6-Apr-1996,3-Apr-1997,27-Mar-1998,6-Apr-1999,28-Mar-2000,8-Apr-2001
87,29-Mar-1993,28-Mar-1994,28-Mar-1995,7-Apr-1996,4-Apr-1997,28-Mar-1998,7-Apr-1999,29-Mar-2000,9-Apr-2001
88,30-Mar-1993,29-Mar-1994,29-Mar-1995,8-Apr-1996,5-Apr-1997,29-Mar-1998,8-Apr-1999,30-Mar-2000,10-Apr-2001
89,31-Mar-1993,30-Mar-1994,30-Mar-1995,9-Apr-1996,6-Apr-1997,30-Mar-1998,9-Apr-1999,31-Mar-2000,11-Apr-2001
90,1-Apr-1993,31-Mar-1994,31-Mar-1995,10-Apr-1996,8-Apr-1997,31-Mar-1998,10-Apr-1999,1-Apr-2000,12-Apr-2001
91,2-Apr-1993,1-Apr-1994,1-Apr-1995,11-Apr-1996,9-Apr-1997,1-Apr-1998,11-Apr-1999,2-Apr-2000,13-Apr-2001
92,3-Apr-1993,2-Apr-1994,2-Apr-1995,12-Apr-1996,10-Apr-1997,2-Apr-1998,12-Apr-1999,3-Apr-2000,14-Apr-2001
93,4-Apr-1993,3-Apr-1994,3-Apr-1995,13-Apr-1996,11-Apr-1997,3-Apr-1998,13-Apr-1999,4-Apr-2000,15-Apr-2001
94,5-Apr-1993,4-Apr-1994,4-Apr-1995,14-Apr-1996,12-Apr-1997,4-Apr-1998,14-Apr-1999,5-Apr-2000,16-Apr-2001
95,6-Apr-1993,5-Apr-1994,5-Apr-1995,15-Apr-1996,13-Apr-1997,5-Apr-1998,15-Apr-1999,6-Apr-2000,17-Apr-2001
96,7-Apr-1993,6-Apr-1994,6-Apr-1995,16-Apr-1996,16-Apr-1997,6-Apr-1998,16-Apr-1999,7-Apr-2000,18-Apr-2001
97,8-Apr-1993,7-Apr-1994,7-Apr-1995,17-Apr-1996,17-Apr-1997,7-Apr-1998,17-Apr-1999,8-Apr-2000,19-Apr-2001
98,9-Apr-1993,8-Apr-1994,8-Apr-1995,18-Apr-1996,18-Apr-1997,9-Apr-1998,18-Apr-1999,9-Apr-2000,20-Apr-2001
99,10-Apr-1993,9-Apr-1994,9-Apr-1995,19-Apr-1996,19-Apr-1997,11-Apr-1998,19-Apr-1999,10-Apr-2000,21-Apr-2001
100,11-Apr-1993,10-Apr-1994,10-Apr-1995,20-Apr-1996,20-Apr-1997,12-Apr-1998,20-Apr-1999,11-Apr-2000,22-Apr-2001
101,12-Apr-1993,11-Apr-1994,11-Apr-1995,21-Apr-1996,21-Apr-1997,13-Apr-1998,21-Apr-1999,12-Apr-2000,23-Apr-2001
102,13-Apr-1993,12-Apr-1994,12-Apr-1995,22-Apr-1996,22-Apr-1997,14-Apr-1998,22-Apr-1999,13-Apr-2000,24-Apr-2001
103,14-Apr-1993,13-Apr-1994,13-Apr-1995,23-Apr-1996,23-Apr-1997,15-Apr-1998,23-Apr-1999,14-Apr-2000,25-Apr-2001
104,15-Apr-1993,14-Apr-1994,14-Apr-1995,24-Apr-1996,24-Apr-1997,16-Apr-1998,24-Apr-1999,15-Apr-2000,26-Apr-2001
105,16-Apr-1993,15-Apr-1994,15-Apr-1995,25-Apr-1996,25-Apr-1997,17-Apr-1998,25-Apr-1999,16-Apr-2000,27-Apr-2001
106,17-Apr-1993,16-Apr-1994,16-Apr-1995,26-Apr-1996,29-Apr-1997,18-Apr-1998,26-Apr-1999,17-Apr-2000,28-Apr-2001
107,18-Apr-1993,17-Apr-1994,17-Apr-1995,27-Apr-1996,30-Apr-1997,19-Apr-1998,27-Apr-1999,18-Apr-2000,29-Apr-2001
108,19-Apr-1993,18-Apr-1994,18-Apr-1995,28-Apr-1996,1-May-1997,20-Apr-1998,28-Apr-1999,19-Apr-2000,30-Apr-2001
109,20-Apr-1993,19-Apr-1994,28-Apr-1995,29-Apr-1996,2-May-1997,21-Apr-1998,29-Apr-1999,20-Apr-2000,1-May-2001
110,21-Apr-1993,20-Apr-1994,29-Apr-1995,30-Apr-1996,3-May-1997,22-Apr-1998,30-Apr-1999,21-Apr-2000,2-May-2001
111,22-Apr-1993,21-Apr-1994,30-Apr-1995,1-May-1996,4-May-1997,23-Apr-1998,1-May-1999,22-Apr-2000,3-May-2001
112,23-Apr-1993,22-Apr-1994,1-May-1995,2-May-1996,5-May-1997,24-Apr-1998,2-May-1999,23-Apr-2000,4-May-2001
113,24-Apr-1993,23-Apr-1994,2-May-1995,3-May-1996,6-May-1997,25-Apr-1998,3-May-1999,24-Apr-2000,5-May-2001
114,25-Apr-1993,24-Apr-1994,3-May-1995,4-May-1996,7-May-1997,26-Apr-1998,4-May-1999,25-Apr-2000,6-May-2001
115,26-Apr-1993,25-Apr-1994,4-May-1995,5-May-1996,8-May-1997,27-Apr-1998,5-May-1999,26-Apr-2000,7-May-2001
116,27-Apr-1993,26-Apr-1994,5-May-1995,6-May-1996,9-May-1997,28-Apr-1998,6-May-1999,27-Apr-2000,8-May-2001
117,28-Apr-1993,27-Apr-1994,6-May-1995,7-May-1996,10-May-1997,29-Apr-1998,7-May-1999,28-Apr-2000,9-May-2001
118,29-Apr-1993,28-Apr-1994,7-May-1995,8-May-1996,11-May-1997,30-Apr-1998,8-May-1999,29-Apr-2000,10-May-2001
119,30-Apr-1993,29-Apr-1994,8-May-1995,9-May-1996,12-May-1997,1-May-1998,9-May-1999,30-Apr-2000,11-May-2001
120,1-May-1993,30-Apr-1994,9-May-1995,10-May-1996,13-May-1997,2-May-1998,10-May-1999,1-May-2000,12-May-2001
121,2-May-1993,1-May-1994,10-May-1995,11-May-1996,14-May-1997,3-May-1998,11-May-1999,2-May-2000,13-May-2001
122,3-May-1993,2-May-1994,11-May-1995,12-May-1996,15-May-1997,4-May-1998,12-May-1999,3-May-2000,14-May-2001
123,4-May-1993,3-May-1994,12-May-1995,13-May-1996,16-May-1997,5-May-1998,13-May-1999,4-May-2000,15-May-2001
124,7-May-1993,4-May-1994,13-May-1995,14-May-1996,17-May-1997,6-May-1998,14-May-1999,5-May-2000,16-May-2001
125,8-May-1993,5-May-1994,14-May-1995,15-May-1996,18-May-1997,7-May-1998,17-May-1999,6-May-2000,17-May-2001
126,9-May-1993,6-May-1994,15-May-1995,16-May-1996,19-May-1997,8-May-1998,18-May-1999,7-May-2000,18-May-2001
127,10-May-1993,8-May-1994,16-May-1995,17-May-1996,20-May-1997,9-May-1998,19-May-1999,8-May-2000,19-May-2001
128,11-May-1993,9-May-1994,17-May-1995,18-May-1996,21-May-1997,10-May-1998,20-May-1999,9-May-2000,20-May-2001
129,12-May-1993,10-May-1994,18-May-1995,19-May-1996,22-May-1997,11-May-1998,21-May-1999,10-May-2000,21-May-2001
130,13-May-1993,11-May-1994,19-May-1995,20-May-1996,23-May-1997,12-May-1998,22-May-1999,11-May-2000,22-May-2001
131,14-May-1993,12-May-1994,20-May-1995,21-May-1996,24-May-1997,13-May-1998,23-May-1999,12-May-2000,23-May-2001
132,15-May-1993,14-May-1994,21-May-1995,22-May-1996,25-May-1997,14-May-1998,24-May-1999,13-May-2000,24-May-2001
133,16-May-1993,15-May-1994,22-May-1995,23-May-1996,26-May-1997,15-May-1998,25-May-1999,14-May-2000,25-May-2001
134,17-May-1993,16-May-1994,23-May-1995,24-May-1996,27-May-1997,16-May-1998,26-May-1999,15-May-2000,26-May-2001
135,18-May-1993,17-May-1994,24-May-1995,25-May-1996,28-May-1997,17-May-1998,27-May-1999,16-May-2000,27-May-2001
136,19-May-1993,18-May-1994,25-May-1995,26-May-1996,29-May-1997,18-May-1998,28-May-1999,17-May-2000,28-May-2001
137,20-May-1993,19-May-1994,26-May-1995,27-May-1996,30-May-1997,19-May-1998,29-May-1999,18-May-2000,29-May-2001
138,21-May-1993,20-May-1994,27-May-1995,28-May-1996,31-May-1997,20-May-1998,30-May-1999,19-May-2000,30-May-2001
139,22-May-1993,21-May-1994,28-May-1995,29-May-1996,1-Jun-1997,21-May-1998,31-May-1999,20-May-2000,31-May-2001
140,23-May-1993,22-May-1994,29-May-1995,30-May-1996,2-Jun-1997,22-May-1998,1-Jun-1999,21-May-2000,1-Jun-2001
141,24-May-1993,1-Jun-1994,30-May-1995,31-May-1996,3-Jun-1997,23-May-1998,2-Jun-1999,22-May-2000,2-Jun-2001
142,25-May-1993,2-Jun-1994,31-May-1995,1-Jun-1996,4-Jun-1997,24-May-1998,3-Jun-1999,23-May-2000,3-Jun-2001
143,26-May-1993,3-Jun-1994,1-Jun-1995,2-Jun-1996,5-Jun-1997,25-May-1998,4-Jun-1999,24-May-2000,4-Jun-2001
144,27-May-1993,4-Jun-1994,2-Jun-1995,3-Jun-1996,6-Jun-1997,26-May-1998,5-Jun-1999,25-May-2000,5-Jun-2001
145,28-May-1993,5-Jun-1994,3-Jun-1995,4-Jun-1996,7-Jun-1997,27-May-1998,6-Jun-1999,26-May-2000,6-Jun-2001
146,29-May-1993,6-Jun-1994,4-Jun-1995,5-Jun-1996,8-Jun-1997,28-May-1998,7-Jun-1999,27-May-2000,7-Jun-2001
147,30-May-1993,7-Jun-1994,5-Jun-1995,6-Jun-1996,9-Jun-1997,29-May-1998,8-Jun-1999,28-May-2000,8-Jun-2001
148,31-May-1993,8-Jun-1994,6-Jun-1995,7-Jun-1996,10-Jun-1997,30-May-1998,9-Jun-1999,29-May-2000,9-Jun-2001
149,1-Jun-1993,9-Jun-1994,11-Aug-1995,8-Jun-1996,11-Jun-1997,31-May-1998,10-Jun-1999,30-May-2000,10-Jun-2001
150,2-Jun-1993,10-Jun-1994,12-Aug-1995,9-Jun-1996,12-Jun-1997,1-Jun-1998,11-Jun-1999,31-May-2000,11-Jun-2001
151,3-Jun-1993,11-Jun-1994,13-Aug-1995,10-Jun-1996,13-Jun-1997,2-Jun-1998,12-Jun-1999,1-Jun-2000,12-Jun-2001
152,4-Jun-1993,12-Jun-1994,14-Aug-1995,11-Jun-1996,14-Jun-1997,3-Jun-1998,13-Jun-1999,2-Jun-2000,13-Jun-2001
153,5-Jun-1993,13-Jun-1994,15-Aug-1995,12-Jun-1996,15-Jun-1997,5-Jun-1998,14-Jun-1999,3-Jun-2000,14-Jun-2001
154,6-Jun-1993,14-Jun-1994,16-Aug-1995,13-Jun-1996,16-Jun-1997,6-Jun-1998,15-Jun-1999,4-Jun-2000,15-Jun-2001
155,7-Jun-1993,15-Jun-1994,17-Aug-1995,14-Jun-1996,17-Jun-1997,7-Jun-1998,16-Jun-1999,5-Jun-2000,16-Jun-2001
156,8-Jun-1993,16-Jun-1994,18-Aug-1995,15-Jun-1996,18-Jun-1997,8-Jun-1998,17-Jun-1999,6-Jun-2000,17-Jun-2001
157,9-Jun-1993,17-Jun-1994,19-Aug-1995,16-Jun-1996,19-Jun-1997,9-Jun-1998,18-Jun-1999,7-Jun-2000,18-Jun-2001
158,10-Jun-1993,18-Jun-1994,20-Aug-1995,17-Jun-1996,20-Jun-1997,10-Jun-1998,19-Jun-1999,8-Jun-2000,19-Jun-2001
159,11-Jun-1993,19-Jun-1994,21-Aug-1995,18-Jun-1996,21-Jun-1997,11-Jun-1998,20-Jun-1999,9-Jun-2000,20-Jun-2001
160,12-Jun-1993,20-Jun-1994,22-Aug-1995,19-Jun-1996,22-Jun-1997,12-Jun-1998,21-Jun-1999,10-Jun-2000,21-Jun-2001
161,13-Jun-1993,21-Jun-1994,23-Aug-1995,20-Jun-1996,23-Jun-1997,13-Jun-1998,22-Jun-1999,11-Jun-2000,22-Jun-2001
162,14-Jun-1993,22-Jun-1994,24-Aug-1995,21-Jun-1996,24-Jun-1997,14-Jun-1998,23-Jun-1999,12-Jun-2000,23-Jun-2001
163,15-Jun-1993,23-Jun-1994,25-Aug-1995,22-Jun-1996,25-Jun-1997,15-Jun-1998,24-Jun-1999,13-Jun-2000,24-Jun-2001
164,16-Jun-1993,24-Jun-1994,26-Aug-1995,23-Jun-1996,26-Jun-1997,16-Jun-1998,25-Jun-1999,14-Jun-2000,25-Jun-2001
165,17-Jun-1993,25-Jun-1994,27-Aug-1995,24-Jun-1996,27-Jun-1997,17-Jun-1998,26-Jun-1999,15-Jun-2000,26-Jun-2001
166,18-Jun-1993,26-Jun-1994,28-Aug-1995,25-Jun-1996,28-Jun-1997,18-Jun-1998,27-Jun-1999,16-Jun-2000,27-Jun-2001
167,19-Jun-1993,27-Jun-1994,29-Aug-1995,26-Jun-1996,29-Jun-1997,22-Jun-1998,28-Jun-1999,17-Jun-2000,28-Jun-2001
168,20-Jun-1993,28-Jun-1994,30-Aug-1995,27-Jun-1996,30-Jun-1997,23-Jun-1998,29-Jun-1999,18-Jun-2000,29-Jun-2001
169,21-Jun-1993,29-Jun-1994,31-Aug-1995,28-Jun-1996,1-Jul-1997,24-Jun-1998,30-Jun-1999,19-Jun-2000,30-Jun-2001
170,22-Jun-1993,30-Jun-1994,1-Sep-1995,29-Jun-1996,2-Jul-1997,26-Jun-1998,1-Jul-1999,20-Jun-2000,1-Jul-2001
171,23-Jun-1993,1-Jul-1994,2-Sep-1995,30-Jun-1996,3-Jul-1997,27-Jun-1998,2-Jul-1999,21-Jun-2000,2-Jul-2001
172,24-Jun-1993,2-Jul-1994,3-Sep-1995,1-Jul-1996,4-Jul-1997,28-Jun-1998,3-Jul-1999,22-Jun-2000,3-Jul-2001
173,25-Jun-1993,3-Jul-1994,4-Sep-1995,2-Jul-1996,5-Jul-1997,29-Jun-1998,4-Jul-1999,23-Jun-2000,4-Jul-2001
174,26-Jun-1993,4-Jul-1994,5-Sep-1995,3-Jul-1996,6-Jul-1997,30-Jun-1998,5-Jul-1999,24-Jun-2000,5-Jul-2001
175,27-Jun-1993,5-Jul-1994,6-Sep-1995,4-Jul-1996,7-Jul-1997,1-Jul-1998,6-Jul-1999,25-Jun-2000,6-Jul-2001
176,28-Jun-1993,6-Jul-1994,7-Sep-1995,5-Jul-1996,8-Jul-1997,2-Jul-1998,7-Jul-1999,26-Jun-2000,7-Jul-2001
177,29-Jun-1993,7-Jul-1994,8-Sep-1995,6-Jul-1996,9-Jul-1997,3-Jul-1998,8-Jul-1999,27-Jun-2000,8-Jul-2001
178,30-Jun-1993,8-Jul-1994,9-Sep-1995,7-Jul-1996,10-Jul-1997,4-Jul-1998,9-Jul-1999,28-Jun-2000,9-Jul-2001
179,1-Jul-1993,9-Jul-1994,10-Sep-1995,8-Jul-1996,11-Jul-1997,5-Jul-1998,10-Jul-1999,29-Jun-2000,10-Jul-2001
180,2-Jul-1993,10-Jul-1994,11-Sep-1995,9-Jul-1996,12-Jul-1997,6-Jul-1998,11-Jul-1999,30-Jun-2000,11-Jul-2001
181,3-Jul-1993,11-Jul-1994,12-Sep-1995,10-Jul-1996,13-Jul-1997,7-Jul-1998,12-Jul-1999,1-Jul-2000,12-Jul-2001
182,4-Jul-1993,12-Jul-1994,13-Sep-1995,11-Jul-1996,14-Jul-1997,8-Jul-1998,13-Jul-1999,2-Jul-2000,13-Jul-2001
183,5-Jul-1993,13-Jul-1994,14-Sep-1995,12-Jul-1996,15-Jul-1997,10-Jul-1998,14-Jul-1999,3-Jul-2000,14-Jul-2001
184,6-Jul-1993,14-Jul-1994,15-Sep-1995,13-Jul-1996,16-Jul-1997,11-Jul-1998,15-Jul-1999,4-Jul-2000,15-Jul-2001
185,7-Jul-1993,15-Jul-1994,16-Sep-1995,14-Jul-1996,17-Jul-1997,12-Jul-1998,16-Jul-1999,5-Jul-2000,16-Jul-2001
186,8-Jul-1993,16-Jul-1994,17-Sep-1995,15-Jul-1996,18-Jul-1997,13-Jul-1998,17-Jul-1999,6-Jul-2000,17-Jul-2001
187,9-Jul-1993,17-Jul-1994,18-Sep-1995,16-Jul-1996,19-Jul-1997,14-Jul-1998,18-Jul-1999,7-Jul-2000,18-Jul-2001
188,10-Jul-1993,18-Jul-1994,19-Sep-1995,17-Jul-1996,20-Jul-1997,15-Jul-1998,19-Jul-1999,8-Jul-2000,19-Jul-2001
189,11-Jul-1993,19-Jul-1994,20-Sep-1995,18-Jul-1996,21-Jul-1997,16-Jul-1998,20-Jul-1999,9-Jul-2000,20-Jul-2001
190,12-Jul-1993,20-Jul-1994,21-Sep-1995,19-Jul-1996,22-Jul-1997,17-Jul-1998,21-Jul-1999,10-Jul-2000,21-Jul-2001
191,13-Jul-1993,21-Jul-1994,22-Sep-1995,20-Jul-1996,23-Jul-1997,18-Jul-1998,22-Jul-1999,11-Jul-2000,22-Jul-2001
192,14-Jul-1993,22-Jul-1994,23-Sep-1995,30-Jul-1996,24-Jul-1997,19-Jul-1998,23-Jul-1999,12-Jul-2000,23-Jul-2001
193,15-Jul-1993,23-Jul-1994,24-Sep-1995,31-Jul-1996,25-Jul-1997,20-Jul-1998,24-Jul-1999,13-Jul-2000,24-Jul-2001
194,16-Jul-1993,24-Jul-1994,25-Sep-1995,1-Aug-1996,26-Jul-1997,21-Jul-1998,25-Jul-1999,14-Jul-2000,25-Jul-2001
195,17-Jul-1993,25-Jul-1994,26-Sep-1995,2-Aug-1996,27-Jul-1997,22-Jul-1998,26-Jul-1999,15-Jul-2000,26-Jul-2001
196,18-Jul-1993,26-Jul-1994,27-Sep-1995,3-Aug-1996,28-Jul-1997,23-Jul-1998,27-Jul-1999,16-Jul-2000,27-Jul-2001
197,19-Jul-1993,27-Jul-1994,28-Sep-1995,4-Aug-1996,29-Jul-1997,24-Jul-1998,28-Jul-1999,17-Jul-2000,28-Jul-2001
198,20-Jul-1993,28-Jul-1994,29-Sep-1995,5-Aug-1996,30-Jul-1997,25-Jul-1998,29-Jul-1999,18-Jul-2000,29-Jul-2001
199,21-Jul-1993,29-Jul-1994,30-Sep-1995,6-Aug-1996,31-Jul-1997,26-Jul-1998,30-Jul-1999,19-Jul-2000,30-Jul-2001
200,22-Jul-1993,30-Jul-1994,1-Oct-1995,7-Aug-1996,1-Aug-1997,27-Jul-1998,31-Jul-1999,20-Jul-2000,31-Jul-2001
201,23-Jul-1993,31-Jul-1994,2-Oct-1995,8-Aug-1996,2-Aug-1997,28-Jul-1998,1-Aug-1999,21-Jul-2000,1-Aug-2001
202,24-Jul-1993,1-Aug-1994,3-Oct-1995,9-Aug-1996,3-Aug-1997,29-Jul-1998,2-Aug-1999,22-Jul-2000,2-Aug-2001
203,25-Jul-1993,2-Aug-1994,4-Oct-1995,10-Aug-1996,4-Aug-1997,30-Jul-1998,3-Aug-1999,23-Jul-2000,3-Aug-2001
204,26-Jul-1993,3-Aug-1994,5-Oct-1995,11-Aug-1996,5-Aug-1997,31-Jul-1998,4-Aug-1999,24-Jul-2000,4-Aug-2001
205,27-Jul-1993,4-Aug-1994,6-Oct-1995,12-Aug-1996,6-Aug-1997,1-Aug-1998,5-Aug-1999,25-Jul-2000,5-Aug-2001
206,28-Jul-1993,5-Aug-1994,7-Oct-1995,13-Aug-1996,7-Aug-1997,2-Aug-1998,6-Aug-1999,26-Jul-2000,6-Aug-2001
207,29-Jul-1993,6-Aug-1994,8-Oct-1995,14-Aug-1996,8-Aug-1997,3-Aug-1998,7-Aug-1999,27-Jul-2000,7-Aug-2001
208,30-Jul-1993,7-Aug-1994,9-Oct-1995,15-Aug-1996,9-Aug-1997,4-Aug-1998,8-Aug-1999,28-Jul-2000,8-Aug-2001
209,31-Jul-1993,8-Aug-1994,10-Oct-1995,16-Aug-1996,10-Aug-1997,5-Aug-1998,9-Aug-1999,29-Jul-2000,9-Aug-2001
210,1-Aug-1993,9-Aug-1994,11-Oct-1995,17-Aug-1996,11-Aug-1997,6-Aug-1998,10-Aug-1999,30-Jul-2000,10-Aug-2001
211,2-Aug-1993,10-Aug-1994,12-Oct-1995,18-Aug-1996,12-Aug-1997,7-Aug-1998,11-Aug-1999,31-Jul-2000,11-Aug-2001
212,3-Aug-1993,11-Aug-1994,13-Oct-1995,19-Aug-1996,13-Aug-1997,8-Aug-1998,12-Aug-1999,1-Aug-2000,12-Aug-2001
213,4-Aug-1993,12-Aug-1994,14-Oct-1995,20-Aug-1996,14-Aug-1997,9-Aug-1998,13-Aug-1999,2-Aug-2000,13-Aug-2001
214,5-Aug-1993,13-Aug-1994,15-Oct-1995,21-Aug-1996,15-Aug-1997,10-Aug-1998,14-Aug-1999,3-Aug-2000,14-Aug-2001
215,6-Aug-1993,14-Aug-1994,16-Oct-1995,22-Aug-1996,16-Aug-1997,11-Aug-1998,15-Aug-1999,4-Aug-2000,15-Aug-2001
216,7-Aug-1993,15-Aug-1994,17-Oct-1995,23-Aug-1996,17-Aug-1997,12-Aug-1998,16-Aug-1999,5-Aug-2000,16-Aug-2001
217,8-Aug-1993,16-Aug-1994,18-Oct-1995,24-Aug-1996,18-Aug-1997,13-Aug-1998,17-Aug-1999,6-Aug-2000,17-Aug-2001
218,9-Aug-1993,17-Aug-1994,19-Oct-1995,25-Aug-1996,19-Aug-1997,14-Aug-1998,18-Aug-1999,7-Aug-2000,18-Aug-2001